Regional Weather Roundup
Issued by NWS San Diego, CA

Home | Current Version | Previous Version | Text Only | Print | Product List | Glossary On
Versions: 1 2 3 4 5 6 7 8 9 10 11 12 13 14 15 16 17 18 19 20 21 22 23 24 25 26 27 28 29 30 31 32 33 34 35 36 37 38 39 40 41 42 43 44 45 46 47 48 49 50
000
ASUS46 KSGX 231210
RWRSGX

SAN DIEGO HOURLY WEATHER ROUNDUP
NATIONAL WEATHER SERVICE SAN DIEGO CA
500 AM PDT WED JUL 23 2014

NOTE: "FAIR" INDICATES FEW OR NO CLOUDS BELOW 12,000 FEET WITH NO
SIGNIFICANT WEATHER AND/OR OBSTRUCTIONS TO VISIBILITY.

CAZ042-043-060-061-PZZ750-775-231300-

GREATER SAN DIEGO AREA

CITY           SKY/WX    TMP DP  RH WIND       PRES   REMARKS
LINDBERGH FLD  PTCLDY    68  61  77 CALM      30.00S
POINT LOMA       N/A     66  64  93 NW8         N/A
NATIONAL CITY    N/A     67  63  86 N1        29.99S
CHULA VISTA      N/A     64  60  88 CALM      29.92F
IMPERIAL BEACH CLEAR     61  60  97 CALM      29.99S
BROWN FIELD    CLEAR     64  61  90 CALM      29.99F
MIRAMAR MCAS   CLEAR     64  60  87 N6        29.99F
MONTGOMERY FLD CLEAR     66  61  84 N3        29.99F

$$

NORTH SAN DIEGO COUNTY

CITY           SKY/WX    TMP DP  RH WIND       PRES   REMARKS
CAMP PENDLETON CLEAR     57  52  83 CALM      29.99S
OCEANSIDE AP   CLEAR     57  55  93 CALM      29.98S
VISTA            N/A     60  56  87 CALM      29.97S
CARLSBAD       CLEAR     65  61  87 CALM      29.98S
DEL MAR          N/A     63  62  96 CALM      30.01S
LA JOLLA SCRIP   N/A     65  64  97 CALM      29.96S
FALLBROOK        N/A     62  62 100 CALM      30.00R
ESCONDIDO        N/A     64  57  77 CALM      30.00S
SAN MARCOS       N/A     64  58  82 CALM      29.96S
R. PENASQUITOS   N/A     63  60  92 CALM      29.99S

$$

EAST SAN DIEGO COUNTY

CITY           SKY/WX    TMP DP  RH WIND       PRES   REMARKS
RAMONA         CLEAR     55  48  77 CALM      30.02S
GILLESPIE FLD  FAIR      63  57  82 CALM      30.01S
LA MESA          N/A     65  62  91 CALM      29.93S
JAMUL            N/A     60  56  87 CALM      29.96F
DESCANSO N       N/A     62  44  52 E3        29.86F
MT. LAGUNA OBS   N/A     72   2   6 W1        29.83S
CAMPO            N/A     52  45  77 NE3       30.03F

$$

ORANGE COUNTY AND THE LOS ANGELES BASIN

CITY           SKY/WX    TMP DP  RH WIND       PRES   REMARKS
JOHN WAYNE AP  CLEAR     68  60  75 CALM      29.98S
LAGUNA BEACH     N/A     60  55  84 NW2       29.95S
LAKE FOREST FR   N/A     63  51  65 CALM      29.88S
SANTA ANA        N/A     64  60  86 CALM      29.94S
HUNTINGTON BCH   N/A     60  59  95 CALM      30.00S
LOS ALAMITOS   FAIR      62  60  91 CALM      29.98S
FULLERTON      CLEAR     68  58  70 CALM      29.97S
LONG BEACH     CLEAR     66  60  81 CALM      29.98S
L.A. AP        PTCLDY    65  61  87 CALM      29.99S
L.A. DOWNTOWN  CLEAR     66  60  81 CALM      29.98S

$$

THE INLAND EMPIRE

CITY           SKY/WX    TMP DP  RH WIND       PRES   REMARKS
CORONA         CLEAR     55  48  77 MISG      30.00S
CHINO          CLEAR     57  53  86 CALM      30.01S
ONTARIO        PTCLDY    68  53  58 CALM      30.00S
RIVERSIDE AP   CLEAR     65  52  62 CALM      30.00S
RIV CYN CREST    N/A     66  57  73 CALM      29.97S
MORENO VALLEY    N/A     66  54  65 CALM      28.12S
MARCH ARB      CLEAR     62  46  55 CALM      30.02F
HORSETHIEF CYN   N/A     66  42  40 S1        30.00S
PERRIS           N/A     67  52  58 CALM        N/A
MENIFEE          N/A     64  50  60 CALM      30.07R
HEMET EAST       N/A     71  41  33 CALM      29.95F
FRENCH VALLEY  FAIR      63  50  63 CALM      30.02S
TEMECULA         N/A     64  59  82 CALM      29.98S

$$

SAN BERNARDINO AND RIVERSIDE COUNTY MOUNTAINS

CITY           SKY/WX    TMP DP  RH WIND       PRES   REMARKS
BIG BEAR AP    CLEAR     45  25  45 CALM      30.36R
BIG BEAR SHEA    N/A     45  20  37 CALM      30.02S
ANGELUS OAKS     N/A     61  24  24 MISG      29.87S
PINE COVE        N/A     70  13  11 CALM      29.93F

$$

SOUTHERN DESERT INCLUDING THE COACHELLA VALLEY

CITY           SKY/WX    TMP DP  RH WIND       PRES   REMARKS
PALM SPRINGS   CLEAR     82  51  34 CALM      29.86S
THOUSAND PALMS   N/A     89  37  16 NW15      29.80S
PALM DESERT      N/A     79  58  48 CALM      29.71F
THERMAL        CLEAR     90  39  16 N13       29.79S
BLYTHE         CLEAR     88  33  14 N12       29.82S
IMPERIAL AP    CLEAR     84  47  27 NW5       29.80R
EL CENTRO NAS  CLEAR     81  42  25 NW5       29.80S
YUMA AZ        CLEAR     87  50  27 CALM      29.81R

$$

UPPER DESERT

CITY           SKY/WX    TMP DP  RH WIND       PRES   REMARKS
VICTORVILLE AP CLEAR     68  36  30 S6        30.09S
HESPERIA         N/A     65  43  46 W5        30.06R
GRAY BUTTE AP  NOT AVBL
PALMDALE       CLEAR     70  46  42 SW9       30.07S
LANCASTER      CLEAR     69  37  30 W9        30.06S
EDWARDS AFB    CLEAR     67  44  42 SW12      30.03S
DAGGETT        CLEAR     74  41  30 W5        30.02R
29 PALMS N     CLEAR     80  34  19 NW9       30.06S
NEEDLES        CLEAR     86  31  13 SW5       29.88R

$$

REGIONAL REPORTS

CITY           SKY/WX    TMP DP  RH WIND       PRES   REMARKS
SANTA BARBARA  CLEAR     62  55  77 CALM      29.98R
SANDBERG       CLEAR     68  38  33 NW14      30.19F
MT. WILSON       N/A     68  18  14 W6          N/A
LAS VEGAS NV   CLEAR     84  31  14 S7        29.94R
PHOENIX AZ     MOCLDY    95  52  23 NE3       29.86S
TIJUANA        CLEAR     64  59  82 CALM      30.01F
ENSENADA NW      N/A     66  32  28 CALM      29.93F

$$

OFFSHORE ISLANDS

CITY           SKY/WX    TMP DP  RH WIND       PRES   REMARKS
CATALINA ARPT  CLEAR     69  46  43 W10       30.03S
SAN NICOLAS IS CLEAR    N/A N/A N/A W25G35    30.01R

$$

MARINE AND OFFSHORE BUOY REPORTS

STATION/POSITION SKY/WX   TEMP    WIND        PRES    SWELL
                          AIR SEA DIR/SP/G            HT/PER/DIR
                          (F)     (DEG/KT/KT) (MB)    (FT/S/D)
TANNER BANKS               66 65  310/ 16/ 17 1017.2F   3/320/10
S CLEMENTE BASIN           68 70  310/ 17/ 19 1015.1F   2/260/11
SAN NICOLAS IS.               67                N/A     2/290/11
SO. S. ROSA ISLA           66 67  320/ 21/ 25 1016.1R
W. S. BARBARA CH           63 63  320/ 21/ 27 1015.9F   2/320/10
S. MONICA BASIN            69 70  350/  6/ 10 1015.1S   3/270/ 6
S PEDRO CHANNEL               68                N/A
DANA POINT                    67                N/A     2/210/12
CMP PENDLETON NS              65                N/A     2/220/13
OCEANSIDE OFFSHR              67                N/A     2/210/11
TORREY PINES OTR              70                N/A     2/230/12
LA JOLLA 1                 67 65   40/  3/  3 1015.5F
MISSION BAY BUOY              69                N/A     2/250/12
SAN DIEGO BAY                 72              1015.8F
POINT LOMA SOUTH              70                N/A     2/240/11

$$




USA.gov is the U.S. government's official web portal to all federal, state and local government web resources and services.